Terminal Aerodrome Forecast
Issued by NWS

Home | Current Version | Previous Version | Text Only | Print | Product List | Glossary On
Versions: 1 2 3 4 5 6 7 8 9 10 11 12 13 14 15 16 17 18 19 20 21 22 23 24 25 26 27 28 29 30 31 32 33 34 35 36 37 38 39 40 41 42 43 44 45 46 47 48 49 50
771
FTUS41 KCTP 261733
TAFAOO
TAF
KAOO 261733Z 2618/2718 31010G15KT P6SM SCT040
     FM270100 VRB05KT P6SM SKC
     FM270900 00000KT 3SM BR SCT100
     FM271400 VRB03KT 6SM HZ BKN050=

USA.gov is the U.S. government's official web portal to all federal, state and local government web resources and services.